Powrót do katalogu

BREEZE-M DEB

LostHEO
NORAD 39934·DEBRIS·🇷🇺 Russia

Wystrzelony Feb 28, 2006 z Baikonur Cosmodrome

Loading…

Następne Przeloty (najbliższe 24 godziny)

TLE

NieaktualneSource: Space-Track

Epoka: Jun 23, 2013, 20:06 UTC

1 39934U 06006DG  13174.83813748  .00048935  00000-0  11119-1 0  9991
2 39934  51.9938  12.1867 4178105 211.2021 110.7155  6.98403534 78417

Śledź BREEZE-M DEB w czasie rzeczywistym z AllMySat

Download on the App Store